Time,TemperatureF,DewpointF,PressureIn,WindDirection,WindDirectionDegrees,WindSpeedMPH,WindSpeedGustMPH,Humidity,HourlyPrecipIn,Conditions,Clouds,dailyrainin,SoftwareType,DateUTC
2013-09-09 00:09:00,65.5,59.5,29.72,ESE,112,1.7,-999.0,81,-99.99,,,0.00,Acu-Link.com,2013-09-09 05:09:00,
2013-09-09 00:25:00,65.1,59.1,29.71,SE,135,0.0,-999.0,81,-99.99,,,0.00,Acu-Link.com,2013-09-09 05:25:00,
2013-09-09 00:40:00,65.3,59.3,29.72,ESE,112,1.7,-999.0,81,-99.99,,,0.00,Acu-Link.com,2013-09-09 05:40:00,
2013-09-09 00:55:00,65.3,59.3,29.71,ESE,112,0.0,-999.0,81,-99.99,,,0.00,Acu-Link.com,2013-09-09 05:55:00,
2013-09-09 01:10:00,65.3,59.7,29.71,ESE,112,1.1,-999.0,82,-99.99,,,0.00,Acu-Link.com,2013-09-09 06:10:00,
2013-09-09 01:25:00,65.3,60.0,29.70,SSE,157,2.2,-999.0,83,-99.99,,,0.00,Acu-Link.com,2013-09-09 06:25:00,
2013-09-09 01:41:00,65.3,60.0,29.69,NNE,22,0.0,-999.0,83,-99.99,,,0.00,Acu-Link.com,2013-09-09 06:41:00,
2013-09-09 01:56:00,65.1,60.1,29.68,ENE,67,2.2,-999.0,84,-99.99,,,0.00,Acu-Link.com,2013-09-09 06:56:00,
2013-09-09 02:11:00,65.1,60.5,29.67,ESE,112,1.1,-999.0,85,-99.99,,,0.00,Acu-Link.com,2013-09-09 07:11:00,
2013-09-09 02:26:00,65.3,60.7,29.65,SSE,157,0.0,-999.0,85,-99.99,,,0.00,Acu-Link.com,2013-09-09 07:26:00,
2013-09-09 02:41:00,65.5,61.2,29.64,ESE,112,0.0,-999.0,86,-99.99,,,0.00,Acu-Link.com,2013-09-09 07:41:00,
2013-09-09 02:57:00,66.0,61.7,29.65,SSE,157,0.0,-999.0,86,-99.99,,,0.00,Acu-Link.com,2013-09-09 07:57:00,
2013-09-09 03:13:00,66.6,62.3,29.65,ENE,67,0.0,-999.0,86,-99.99,,,0.00,Acu-Link.com,2013-09-09 08:13:00,
2013-09-09 03:28:00,66.6,62.3,29.65,ESE,112,1.1,-999.0,86,-99.99,,,0.00,Acu-Link.com,2013-09-09 08:28:00,
2013-09-09 03:43:00,66.7,62.4,29.64,ESE,112,0.0,-999.0,86,-99.99,,,0.00,Acu-Link.com,2013-09-09 08:43:00,
2013-09-09 03:58:00,66.9,62.6,29.63,NNW,337,2.2,-999.0,86,-99.99,,,0.00,Acu-Link.com,2013-09-09 08:58:00,
2013-09-09 04:13:00,66.9,62.6,29.63,West,270,2.2,-999.0,86,-99.99,,,0.00,Acu-Link.com,2013-09-09 09:13:00,
2013-09-09 04:28:00,67.3,63.0,29.63,ESE,112,1.7,-999.0,86,-99.99,,,0.00,Acu-Link.com,2013-09-09 09:28:00,
2013-09-09 04:44:00,67.5,63.2,29.65,SE,135,0.0,-999.0,86,-99.99,,,0.00,Acu-Link.com,2013-09-09 09:44:00,
2013-09-09 04:59:00,67.6,63.9,29.63,ESE,112,2.2,-999.0,88,-99.99,,,0.00,Acu-Link.com,2013-09-09 09:59:00,
2013-09-09 05:14:00,67.5,63.8,29.60,NNE,22,2.2,-999.0,88,-99.99,,,0.00,Acu-Link.com,2013-09-09 10:14:00,
2013-09-09 14:09:00,80.6,72.3,29.50,SW,225,2.7,-999.0,76,-99.99,,,0.00,Acu-Link.com,2013-09-09 19:09:00,
2013-09-09 14:25:00,82.4,73.7,29.50,SW,225,2.7,-999.0,75,-99.99,,,0.00,Acu-Link.com,2013-09-09 19:25:00,
2013-09-09 14:40:00,82.9,73.7,29.50,ESE,112,0.0,-999.0,74,-99.99,,,0.00,Acu-Link.com,2013-09-09 19:40:00,
2013-09-09 14:55:00,84.6,75.0,29.50,WNW,292,1.7,-999.0,73,-99.99,,,0.00,Acu-Link.com,2013-09-09 19:55:00,
2013-09-09 15:10:00,85.3,75.2,29.50,East,90,2.2,-999.0,72,-99.99,,,0.00,Acu-Link.com,2013-09-09 20:10:00,
2013-09-09 15:25:00,86.0,75.5,29.50,East,90,2.2,-999.0,71,-99.99,,,0.00,Acu-Link.com,2013-09-09 20:25:00,
2013-09-09 15:40:00,85.5,74.6,29.50,SW,225,0.0,-999.0,70,-99.99,,,0.00,Acu-Link.com,2013-09-09 20:40:00,
2013-09-09 15:56:00,86.2,75.2,29.50,SSW,202,0.0,-999.0,70,-99.99,,,0.00,Acu-Link.com,2013-09-09 20:56:00,
2013-09-09 16:11:00,85.5,75.0,29.50,WSW,247,3.2,-999.0,71,-99.99,,,0.00,Acu-Link.com,2013-09-09 21:11:00,
2013-09-09 16:26:00,85.6,74.7,29.50,SSW,202,1.7,-999.0,70,-99.99,,,0.00,Acu-Link.com,2013-09-09 21:26:00,
2013-09-09 16:41:00,86.9,75.0,29.50,SSE,157,3.2,-999.0,68,-99.99,,,0.00,Acu-Link.com,2013-09-09 21:41:00,
2013-09-09 16:56:00,86.4,74.6,29.51,WSW,247,2.7,-999.0,68,-99.99,,,0.00,Acu-Link.com,2013-09-09 21:56:00,
2013-09-09 17:11:00,85.6,74.7,29.51,SW,225,1.1,-999.0,70,-99.99,,,0.00,Acu-Link.com,2013-09-09 22:11:00,
2013-09-09 17:27:00,84.4,74.4,29.52,SW,225,2.2,-999.0,72,-99.99,,,0.00,Acu-Link.com,2013-09-09 22:27:00,
2013-09-09 17:42:00,84.0,74.4,29.52,ENE,67,1.7,-999.0,73,-99.99,,,0.00,Acu-Link.com,2013-09-09 22:42:00,
2013-09-09 17:57:00,84.0,74.4,29.53,West,270,2.2,-999.0,73,-99.99,,,0.00,Acu-Link.com,2013-09-09 22:57:00,
2013-09-09 18:12:00,84.0,74.4,29.53,WSW,247,2.7,-999.0,73,-99.99,,,0.00,Acu-Link.com,2013-09-09 23:12:00,
2013-09-09 18:27:00,83.3,73.7,29.53,South,180,2.7,-999.0,73,-99.99,,,0.00,Acu-Link.com,2013-09-09 23:27:00,
2013-09-09 18:42:00,82.8,73.2,29.54,West,270,3.2,-999.0,73,-99.99,,,0.00,Acu-Link.com,2013-09-09 23:42:00,
2013-09-09 18:57:00,81.5,72.4,29.55,NW,315,2.7,-999.0,74,-99.99,,,0.00,Acu-Link.com,2013-09-09 23:57:00,
2013-09-09 19:12:00,80.4,70.9,29.56,SW,225,5.3,-999.0,73,-99.99,,,0.00,Acu-Link.com,2013-09-10 00:12:00,
2013-09-09 19:28:00,79.3,69.9,29.56,North,0,1.7,-999.0,73,-99.99,,,0.00,Acu-Link.com,2013-09-10 00:28:00,
2013-09-09 19:43:00,78.6,69.6,29.57,WNW,292,2.7,-999.0,74,-99.99,,,0.00,Acu-Link.com,2013-09-10 00:43:00,
2013-09-09 19:58:00,77.9,68.9,29.58,West,270,2.7,-999.0,74,-99.99,,,0.00,Acu-Link.com,2013-09-10 00:58:00,
2013-09-09 20:14:00,77.2,68.3,29.58,West,270,1.7,-999.0,74,-99.99,,,0.00,Acu-Link.com,2013-09-10 01:14:00,
2013-09-09 20:29:00,76.5,67.6,29.59,NNW,337,2.2,-999.0,74,-99.99,,,0.00,Acu-Link.com,2013-09-10 01:29:00,
2013-09-09 20:44:00,75.4,66.9,29.60,West,270,3.2,-999.0,75,-99.99,,,0.00,Acu-Link.com,2013-09-10 01:44:00,
2013-09-09 20:59:00,74.8,66.3,29.61,West,270,2.7,-999.0,75,-99.99,,,0.00,Acu-Link.com,2013-09-10 01:59:00,
2013-09-09 21:14:00,73.8,65.7,29.62,NNE,22,2.2,-999.0,76,-99.99,,,0.00,Acu-Link.com,2013-09-10 02:14:00,
2013-09-09 21:30:00,73.0,65.0,29.62,WNW,292,2.7,-999.0,76,-99.99,,,0.00,Acu-Link.com,2013-09-10 02:30:00,
2013-09-09 21:45:00,72.0,64.0,29.62,West,270,2.2,-999.0,76,-99.99,,,0.00,Acu-Link.com,2013-09-10 02:45:00,
2013-09-09 22:00:00,71.4,63.8,29.63,WSW,247,1.7,-999.0,77,-99.99,,,0.00,Acu-Link.com,2013-09-10 03:00:00,
2013-09-09 22:15:00,71.2,63.6,29.64,West,270,2.2,-999.0,77,-99.99,,,0.00,Acu-Link.com,2013-09-10 03:15:00,
2013-09-09 22:30:00,70.9,63.3,29.64,North,0,2.2,-999.0,77,-99.99,,,0.00,Acu-Link.com,2013-09-10 03:30:00,
2013-09-09 22:46:00,70.5,63.3,29.64,West,270,3.2,-999.0,78,-99.99,,,0.00,Acu-Link.com,2013-09-10 03:46:00,
2013-09-09 23:01:00,70.2,63.0,29.64,NW,315,2.2,-999.0,78,-99.99,,,0.00,Acu-Link.com,2013-09-10 04:01:00,
2013-09-09 23:16:00,69.8,63.0,29.63,North,0,1.1,-999.0,79,-99.99,,,0.00,Acu-Link.com,2013-09-10 04:16:00,
2013-09-09 23:31:00,69.3,62.9,29.64,NW,315,2.7,-999.0,80,-99.99,,,0.00,Acu-Link.com,2013-09-10 04:31:00,
2013-09-09 23:46:00,68.9,62.8,29.63,ENE,67,0.0,-999.0,81,-99.99,,,0.00,Acu-Link.com,2013-09-10 04:46:00,